IBE369 LOWW-EDDF

Flight info

Callsign IBE369
Flight time N/A
Altitude 30000
Route LUGEM DCT SUBEN T161 DEBHI DEBHI1B
Aircraft A320/M-SDE3FGHIRWY/LB1

Departure

Time 2026-05-06 19:57
Airport Vienna International Airport (LOWW)

Arrival

Time N/A
Airport Frankfurt Main Airport (EDDF)
Time Latitude Longitude Altitude Speed Heading
2026-05-06 19:11 48.11731 16.56739 603 ft 0 kts 26°
2026-05-06 19:11 48.11731 16.56738 603 ft 0 kts 26°
2026-05-06 19:30 48.11731 16.56739 602 ft 1 kts 26°
2026-05-06 19:31 48.11725 16.56734 603 ft 2 kts 26°
2026-05-06 19:31 48.11707 16.56722 603 ft 3 kts 26°
2026-05-06 19:31 48.11674 16.56700 619 ft 3 kts
2026-05-06 19:32 48.11656 16.56704 622 ft 3 kts 322°
2026-05-06 19:32 48.11643 16.56725 614 ft 3 kts 297°
2026-05-06 19:32 48.11639 16.56738 618 ft 1 kts 294°
2026-05-06 19:32 48.11638 16.56741 618 ft 1 kts 294°
2026-05-06 19:34 48.11647 16.56713 622 ft 9 kts 295°
2026-05-06 19:34 48.11673 16.56630 614 ft 8 kts 295°
2026-05-06 19:34 48.11698 16.56550 613 ft 11 kts 296°
2026-05-06 19:35 48.11732 16.56454 611 ft 10 kts 297°
2026-05-06 19:35 48.11758 16.56362 611 ft 9 kts 277°
2026-05-06 19:35 48.11721 16.56289 619 ft 11 kts 211°
2026-05-06 19:35 48.11655 16.56239 619 ft 10 kts 212°
2026-05-06 19:36 48.11609 16.56185 616 ft 7 kts 214°
2026-05-06 19:36 48.11588 16.56138 618 ft 6 kts 261°
2026-05-06 19:36 48.11609 16.56049 623 ft 10 kts 295°
2026-05-06 19:36 48.11667 16.55871 622 ft 23 kts 296°
2026-05-06 19:37 48.11737 16.55654 616 ft 23 kts 296°
2026-05-06 19:37 48.11807 16.55444 618 ft 23 kts 297°
2026-05-06 19:37 48.11873 16.55241 616 ft 21 kts 296°
2026-05-06 19:37 48.11935 16.55050 620 ft 19 kts 296°
2026-05-06 19:38 48.11989 16.54881 608 ft 17 kts 296°
2026-05-06 19:38 48.12042 16.54721 612 ft 17 kts 296°
2026-05-06 19:38 48.12090 16.54571 611 ft 16 kts 296°
2026-05-06 19:38 48.12143 16.54410 601 ft 18 kts 297°
2026-05-06 19:39 48.12197 16.54244 600 ft 17 kts 295°
2026-05-06 19:39 48.12249 16.54083 597 ft 17 kts 295°
2026-05-06 19:39 48.12299 16.53931 598 ft 15 kts 295°
2026-05-06 19:39 48.12341 16.53801 596 ft 5 kts 296°
2026-05-06 19:40 48.12341 16.53799 596 ft 0 kts 296°
2026-05-06 19:41 48.12343 16.53792 596 ft 5 kts 296°
2026-05-06 19:41 48.12372 16.53707 596 ft 0 kts 296°
2026-05-06 19:45 48.12372 16.53706 596 ft 1 kts 296°
2026-05-06 19:45 48.12379 16.53685 597 ft 0 kts 295°
2026-05-06 19:47 48.12387 16.53645 597 ft 3 kts 279°
2026-05-06 19:47 48.12386 16.53621 598 ft 4 kts 259°
2026-05-06 19:47 48.12378 16.53597 599 ft 0 kts 237°
2026-05-06 19:48 48.12375 16.53592 599 ft 2 kts 230°
2026-05-06 19:48 48.12366 16.53581 599 ft 0 kts 217°
2026-05-06 19:48 48.12357 16.53574 600 ft 2 kts 209°
2026-05-06 19:48 48.12355 16.53572 600 ft 0 kts 208°
2026-05-06 19:53 48.12315 16.53540 602 ft 14 kts 207°
2026-05-06 19:53 48.12225 16.53526 601 ft 14 kts 139°
2026-05-06 19:54 48.12198 16.53591 600 ft 0 kts 116°
2026-05-06 19:56 48.12188 16.53622 600 ft 18 kts 116°
2026-05-06 19:56 48.12019 16.54133 601 ft 87 kts 116°
2026-05-06 19:57 48.11673 16.55205 616 ft 140 kts 116°
2026-05-06 19:57 48.11188 16.56662 830 ft 165 kts 122°
2026-05-06 19:57 48.10658 16.58243 1428 ft 171 kts 122°
2026-05-06 19:57 48.10123 16.59849 2064 ft 179 kts 127°
2026-05-06 19:58 48.09521 16.61618 2417 ft 202 kts 127°
2026-05-06 19:58 48.08854 16.63545 2996 ft 212 kts 132°
2026-05-06 19:58 48.07781 16.64878 3610 ft 196 kts 173°
2026-05-06 19:58 48.06499 16.64862 4350 ft 187 kts 205°
2026-05-06 19:59 48.05369 16.63901 5045 ft 190 kts 213°
2026-05-06 19:59 48.04229 16.62836 5641 ft 200 kts 217°
2026-05-06 19:59 48.03342 16.61137 5960 ft 224 kts 249°
2026-05-06 19:59 48.03283 16.58686 6322 ft 252 kts 275°
2026-05-06 20:00 48.03624 16.56063 6975 ft 261 kts 277°
2026-05-06 20:00 48.04009 16.53391 7759 ft 265 kts 277°
2026-05-06 20:00 48.04406 16.50682 8549 ft 269 kts 277°
2026-05-06 20:00 48.04816 16.47841 8907 ft 293 kts 278°
2026-05-06 20:01 48.05249 16.44752 8996 ft 323 kts 278°
2026-05-06 20:01 48.05726 16.41300 9007 ft 355 kts 278°
2026-05-06 20:01 48.06237 16.37606 9488 ft 364 kts 279°
2026-05-06 20:01 48.06743 16.33995 10746 ft 347 kts 279°
2026-05-06 20:02 48.07233 16.30482 11696 ft 345 kts 279°
2026-05-06 20:02 48.07720 16.26954 12427 ft 348 kts 279°
2026-05-06 20:02 48.08205 16.23391 13104 ft 352 kts 278°
2026-05-06 20:02 48.08692 16.19784 13771 ft 356 kts 278°
2026-05-06 20:03 48.09183 16.16142 14387 ft 359 kts 278°
2026-05-06 20:03 48.09677 16.12472 15007 ft 361 kts 278°
2026-05-06 20:03 48.10174 16.08772 15624 ft 364 kts 278°
2026-05-06 20:03 48.10673 16.05045 16251 ft 367 kts 278°
2026-05-06 20:04 48.11175 16.01283 16847 ft 370 kts 277°
2026-05-06 20:04 48.11680 15.97495 17445 ft 373 kts 277°
2026-05-06 20:04 48.12180 15.93725 18090 ft 374 kts 277°
2026-05-06 20:04 48.12688 15.89903 18657 ft 376 kts 277°
2026-05-06 20:05 48.13199 15.86046 19186 ft 379 kts 277°
2026-05-06 20:05 48.13713 15.82165 19687 ft 382 kts 277°
2026-05-06 20:05 48.14231 15.78253 20203 ft 385 kts 277°
2026-05-06 20:05 48.14749 15.74311 20718 ft 387 kts 277°
2026-05-06 20:06 48.15269 15.70340 21232 ft 390 kts 277°
2026-05-06 20:06 48.15792 15.66335 21722 ft 393 kts 277°
2026-05-06 20:06 48.16319 15.62303 22200 ft 396 kts 277°
2026-05-06 20:06 48.16840 15.58292 22658 ft 399 kts 277°
2026-05-06 20:07 48.17369 15.54200 23158 ft 401 kts 276°
2026-05-06 20:07 48.17900 15.50093 23619 ft 402 kts 276°
2026-05-06 20:07 48.18431 15.45978 24028 ft 403 kts 276°
2026-05-06 20:07 48.18960 15.41850 24421 ft 404 kts 276°
2026-05-06 20:08 48.19491 15.37708 24801 ft 405 kts 276°
2026-05-06 20:08 48.20024 15.33551 25181 ft 407 kts 276°
2026-05-06 20:08 48.20556 15.29383 25554 ft 408 kts 276°
2026-05-06 20:08 48.21087 15.25200 25916 ft 409 kts 276°
2026-05-06 20:09 48.21613 15.21001 26289 ft 410 kts 276°
2026-05-06 20:09 48.22133 15.16845 26636 ft 412 kts 276°
2026-05-06 20:09 48.22663 15.12621 27019 ft 413 kts 275°
2026-05-06 20:09 48.23195 15.08391 27412 ft 413 kts 275°
2026-05-06 20:10 48.23726 15.04160 27778 ft 413 kts 275°
2026-05-06 20:10 48.24257 14.99918 28106 ft 414 kts 275°
2026-05-06 20:10 48.24786 14.95663 28417 ft 416 kts 275°
2026-05-06 20:10 48.25315 14.91393 28725 ft 417 kts 275°
2026-05-06 20:11 48.25845 14.87117 29027 ft 417 kts 275°
2026-05-06 20:11 48.26367 14.82887 29300 ft 419 kts 275°
2026-05-06 20:11 48.26892 14.78584 29577 ft 420 kts 275°
2026-05-06 20:11 48.27414 14.74275 29753 ft 419 kts 275°
2026-05-06 20:12 48.28440 14.65836 29795 ft 406 kts 275°
2026-05-06 20:12 48.29446 14.57514 29804 ft 405 kts 274°
2026-05-06 20:13 48.30437 14.49202 29818 ft 404 kts 274°
2026-05-06 20:13 48.31428 14.40948 29825 ft 404 kts 274°
2026-05-06 20:14 48.32393 14.32801 29827 ft 404 kts 274°
2026-05-06 20:14 48.33365 14.24488 29843 ft 404 kts 275°
2026-05-06 20:15 48.34333 14.16163 29827 ft 405 kts 274°
2026-05-06 20:15 48.35290 14.07936 29812 ft 405 kts 274°
2026-05-06 20:16 48.36253 13.99659 29809 ft 405 kts 274°
2026-05-06 20:16 48.37192 13.91506 29811 ft 404 kts 274°
2026-05-06 20:17 48.38095 13.83567 29827 ft 406 kts 274°
2026-05-06 20:17 48.39024 13.75344 29822 ft 407 kts 274°
2026-05-06 20:18 48.39963 13.66997 29834 ft 408 kts 274°
2026-05-06 20:18 48.40946 13.59191 29834 ft 413 kts 283°
2026-05-06 20:19 48.43191 13.51138 29842 ft 418 kts 288°
2026-05-06 20:19 48.45517 13.43167 29855 ft 420 kts 288°
2026-05-06 20:20 48.47731 13.35546 29836 ft 421 kts 288°
2026-05-06 20:20 48.50056 13.27487 29833 ft 422 kts 288°
2026-05-06 20:21 48.52363 13.19444 29834 ft 423 kts 288°
2026-05-06 20:21 48.54687 13.11330 29833 ft 424 kts 288°
2026-05-06 20:22 48.57002 13.03222 29839 ft 426 kts 289°
2026-05-06 20:22 48.59346 12.94985 29826 ft 429 kts 289°
2026-05-06 20:23 48.61665 12.86818 29831 ft 431 kts 289°
2026-05-06 20:23 48.64022 12.78482 29826 ft 432 kts 289°
2026-05-06 20:24 48.66363 12.70178 29827 ft 432 kts 289°
2026-05-06 20:24 48.68731 12.61750 29835 ft 433 kts 288°